�N����,����,�g�[���i���ԁj���x,�g�[�����x,��g�[���i���ցj���x,����
 2003/06/01, 0:00,25.8,54,24.7,24.8
 2003/06/01, 0:15,25.7,53,24.5,24.7
 2003/06/01, 0:30,25.6,53,24.4,24.6
 2003/06/01, 0:45,25.6,53,24.4,24.5
 2003/06/01, 1:00,25.6,52,24.3,24.5
 2003/06/01, 1:15,25.6,53,24.3,24.5
 2003/06/01, 1:30,25.6,53,24.4,24.4
 2003/06/01, 1:45,25.7,53,24.5,24.1
 2003/06/01, 2:00,25.7,53,24.6,24
 2003/06/01, 2:15,25.6,53,24.5,24.2
 2003/06/01, 2:30,25.6,53,24.4,24.1
 2003/06/01, 2:45,25.7,53,24.5,23.8
 2003/06/01, 3:00,25.7,54,24.5,23.7
 2003/06/01, 3:15,25.7,54,24.6,23.8
 2003/06/01, 3:30,25.7,54,24.6,23.8
 2003/06/01, 3:45,25.8,54,24.8,23.6
 2003/06/01, 4:00,25.8,54,24.6,24
 2003/06/01, 4:15,25.6,53,24.3,24.2
 2003/06/01, 4:30,25.5,51,24,24.2
 2003/06/01, 4:45,25.4,50,23.9,24.1
 2003/06/01, 5:00,25.4,49,23.8,24.1
 2003/06/01, 5:15,25.4,49,23.8,24.2
 2003/06/01, 5:30,25.4,48,23.8,24.2
 2003/06/01, 5:45,25.4,48,23.7,24.1
 2003/06/01, 6:00,25.1,47,23.5,23.7
 2003/06/01, 6:15,25.1,47,23.5,23.8
 2003/06/01, 6:30,25.2,47,23.4,23.9
 2003/06/01, 6:45,25.1,46,23.4,23.8
 2003/06/01, 7:00,25.2,46,23.4,23.8
 2003/06/01, 7:15,25.1,45,23.3,23.8
 2003/06/01, 7:30,25.1,45,23.3,23.6
 2003/06/01, 7:45,25.1,46,23.3,23.7
 2003/06/01, 8:00,25.1,45,23.3,23.7
 2003/06/01, 8:15,25.1,45,23.4,23.8
 2003/06/01, 8:30,25.2,45,23.5,23.8
 2003/06/01, 8:45,25.2,45,23.4,23.8
 2003/06/01, 9:00,25.3,45,23.5,23.7
 2003/06/01, 9:15,25.3,45,23.5,23.5
 2003/06/01, 9:30,25.3,45,23.4,23.6
 2003/06/01, 9:45,25.2,45,23.2,22.7
 2003/06/01,10:00,25,46,23,22.3
 2003/06/01,10:15,25,47,23.1,22.3
 2003/06/01,10:30,25.2,46,23,22.4
 2003/06/01,10:45,25.1,46,22.9,22
 2003/06/01,11:00,25,46,22.8,22.2
 2003/06/01,11:15,24.9,46,22.7,21.8
 2003/06/01,11:30,24.9,45,22.7,22.4
 2003/06/01,11:45,25.2,46,23.4,22.5
 2003/06/01,12:00,25.3,46,23.7,22.5
 2003/06/01,12:15,25.4,47,23.9,22.8
 2003/06/01,12:30,25.5,46,23.8,22.7
 2003/06/01,12:45,25.5,47,24,22.9
 2003/06/01,13:00,25.6,46,24,22.8
 2003/06/01,13:15,25.6,46,24,22.9
 2003/06/01,13:30,25.8,47,24.1,23
 2003/06/01,13:45,25.8,47,24.3,23.3
 2003/06/01,14:00,25.8,47,24.3,23.3
 2003/06/01,14:15,25.8,45,24.1,23.4
 2003/06/01,14:30,25.8,46,24.4,23.5
 2003/06/01,14:45,25.8,46,24.4,23.4
 2003/06/01,15:00,25.7,46,24.4,23.5
 2003/06/01,15:15,25.8,46,24.4,23.5
 2003/06/01,15:30,25.8,46,24.8,23.5
 2003/06/01,15:45,25.7,45,24.6,23.6
 2003/06/01,16:00,25.8,47,24.6,23.6
 2003/06/01,16:15,25.8,45,24.3,23.6
 2003/06/01,16:30,25.5,43,23.8,23.5
 2003/06/01,16:45,25.6,44,23.9,23.8
 2003/06/01,17:00,25.5,43,23.6,23.6
 2003/06/01,17:15,25.5,42,23.8,24
 2003/06/01,17:30,25.6,42,23.9,24
 2003/06/01,17:45,25.3,42,24.1,24.2
 2003/06/01,18:00,25.2,42,24.2,24.3
 2003/06/01,18:15,25.3,43,24.2,24.2
 2003/06/01,18:30,25.4,44,23.9,24
 2003/06/01,18:45,25.3,42,23.8,23.9
 2003/06/01,19:00,25.3,42,23.6,24
 2003/06/01,19:15,25.2,41,23.4,23.8
 2003/06/01,19:30,25.1,40,23.1,23.6
 2003/06/01,19:45,25,40,23.2,23.8
 2003/06/01,20:00,24.8,39,23.2,23.8
 2003/06/01,20:15,24.8,39,23,23.7
 2003/06/01,20:30,24.8,39,22.8,23.4
 2003/06/01,20:45,24.9,38,22.8,23.4
 2003/06/01,21:00,24.9,39,22.7,23.4
 2003/06/01,21:15,25,40,22.8,23.4
 2003/06/01,21:30,24.9,37,23.1,23.6
 2003/06/01,21:45,25,40,23.4,23.6
 2003/06/01,22:00,24.9,40,23.6,23.8
 2003/06/01,22:15,25,42,23.8,23.7
 2003/06/01,22:30,25.2,43,23.9,23.7
 2003/06/01,22:45,25.2,44,23.9,23.5
 2003/06/01,23:00,25.2,44,24,23.5
 2003/06/01,23:15,25.3,44,24,23.7
 2003/06/01,23:30,25.3,45,24,23.8
 2003/06/01,23:45,25.3,45,24.1,23.8
 2003/06/02, 0:00,25.3,45,24.1,23.8
 2003/06/02, 0:15,25.4,45,24.1,23.9
 2003/06/02, 0:30,25.4,45,24.3,24.2
 2003/06/02, 0:45,25.5,45,24.4,24.4
 2003/06/02, 1:00,25.4,46,24.4,24.5
 2003/06/02, 1:15,25.4,46,24.4,24.6
 2003/06/02, 1:30,25.4,46,24.4,24.6
 2003/06/02, 1:45,25.4,46,24.4,24.7
 2003/06/02, 2:00,25.4,47,24.4,24.7
 2003/06/02, 2:15,25.4,47,24.2,24.8
 2003/06/02, 2:30,25.4,47,24.1,24.8
 2003/06/02, 2:45,25.4,47,24,24.8
 2003/06/02, 3:00,25.4,47,24.1,24.8
 2003/06/02, 3:15,25.3,48,24.3,24.9
 2003/06/02, 3:30,25.3,48,24.3,24.9
 2003/06/02, 3:45,25.3,48,24.2,24.9
 2003/06/02, 4:00,25.3,48,24.2,24.9
 2003/06/02, 4:15,25.3,48,24.2,24.9
 2003/06/02, 4:30,25.3,48,24.3,24.9
 2003/06/02, 4:45,25.3,48,24.2,24.9
 2003/06/02, 5:00,25.3,48,24.3,25
 2003/06/02, 5:15,25.4,48,24.3,25
 2003/06/02, 5:30,25.5,48,24.3,25
 2003/06/02, 5:45,25.7,48,24.3,25
 2003/06/02, 6:00,26,46,24.3,25.1
 2003/06/02, 6:15,25.9,41,24.5,25.1
 2003/06/02, 6:30,24,41,24,25
 2003/06/02, 6:45,24.3,40,24.1,25
 2003/06/02, 7:00,24.8,39,24.2,25
 2003/06/02, 7:15,25.5,39,23.6,24.5
 2003/06/02, 7:30,25.9,41,23.8,24.7
 2003/06/02, 7:45,26.3,41,24.2,24.9
 2003/06/02, 8:00,26.4,42,24.3,25
 2003/06/02, 8:15,26.5,42,24.4,25.1
 2003/06/02, 8:30,26.4,43,24.6,25.2
 2003/06/02, 8:45,26.5,43,24.7,25.2
 2003/06/02, 9:00,26.5,43,24.8,25.3
 2003/06/02, 9:15,26.4,44,24.9,25.3
 2003/06/02, 9:30,26.5,44,24.9,25.3
 2003/06/02, 9:45,26.4,44,24.9,25.3
 2003/06/02,10:00,26.4,45,24.9,25.4
 2003/06/02,10:15,26.4,44,24.9,25.4
 2003/06/02,10:30,26.4,44,24.9,25.4
 2003/06/02,10:45,26.4,44,24.8,25.4
 2003/06/02,11:00,26.4,44,24.9,25.4
 2003/06/02,11:15,26.4,44,24.9,25.4
 2003/06/02,11:30,26.4,44,24.9,25.4
 2003/06/02,11:45,26.3,45,24.9,25.4
 2003/06/02,12:00,26.4,45,24.9,25.4
 2003/06/02,12:15,26.4,44,24.9,25.4
 2003/06/02,12:30,26.4,44,25,25.4
 2003/06/02,12:45,26.3,45,25,25.4
 2003/06/02,13:00,26.4,44,25.1,25.5
 2003/06/02,13:15,26.4,44,25.1,25.5
 2003/06/02,13:30,26.4,44,25.2,25.5
 2003/06/02,13:45,26.3,45,25.2,25.5
 2003/06/02,14:00,26.4,44,25.2,25.5
 2003/06/02,14:15,26.3,44,25.3,25.5
 2003/06/02,14:30,26.3,44,25.3,25.5
 2003/06/02,14:45,26.4,44,25.4,25.6
 2003/06/02,15:00,26.3,44,25.4,25.6
 2003/06/02,15:15,26.3,44,25.5,25.6
 2003/06/02,15:30,26.3,44,25.5,25.6
 2003/06/02,15:45,26.4,44,25.7,25.6
 2003/06/02,16:00,26.3,44,26.1,25.6
 2003/06/02,16:15,26.3,44,26.3,25.6
 2003/06/02,16:30,26.4,44,26.5,25.6
 2003/06/02,16:45,26.4,44,26.7,25.7
 2003/06/02,17:00,26.4,44,26.8,25.7
 2003/06/02,17:15,26.4,44,26.8,25.7
 2003/06/02,17:30,26.4,43,26.7,25.7
 2003/06/02,17:45,26.4,43,26.6,25.7
 2003/06/02,18:00,26.4,43,26.5,25.9
 2003/06/02,18:15,26.3,43,26.4,26
 2003/06/02,18:30,26.3,43,26.2,25.9
 2003/06/02,18:45,26.3,43,26.1,25.8
 2003/06/02,19:00,26.3,43,25.9,25.8
 2003/06/02,19:15,26.2,43,25.8,25.8
 2003/06/02,19:30,26.2,43,25.7,25.8
 2003/06/02,19:45,26.2,44,25.6,25.8
 2003/06/02,20:00,26.2,44,25.6,25.8
 2003/06/02,20:15,26.1,44,25.6,25.8
 2003/06/02,20:30,26.2,45,25.6,25.7
 2003/06/02,20:45,26.2,45,25.5,25.7
 2003/06/02,21:00,26.1,45,25.5,25.7
 2003/06/02,21:15,26.1,44,25.5,25.7
 2003/06/02,21:30,26.1,44,25.5,25.7
 2003/06/02,21:45,26.1,44,25.5,25.7
 2003/06/02,22:00,26,44,25.5,25.7
 2003/06/02,22:15,26,44,25.4,25.7
 2003/06/02,22:30,26,44,25.4,25.7
 2003/06/02,22:45,26,44,25.4,25.7
 2003/06/02,23:00,26,45,25.3,25.7
 2003/06/02,23:15,26,45,25.3,25.7
 2003/06/02,23:30,25.9,45,25.2,25.7
 2003/06/02,23:45,25.9,45,25.3,25.7
 2003/06/03, 0:00,25.9,45,25.3,25.6
 2003/06/03, 0:15,25.9,45,25.3,25.6
 2003/06/03, 0:30,25.9,45,25.2,25.6
 2003/06/03, 0:45,25.8,45,25.2,25.6
 2003/06/03, 1:00,25.8,45,25.1,25.6
 2003/06/03, 1:15,25.8,45,25.1,25.6
 2003/06/03, 1:30,25.8,45,25.1,25.6
 2003/06/03, 1:45,25.8,45,25.1,25.6
 2003/06/03, 2:00,25.8,45,25.1,25.6
 2003/06/03, 2:15,25.8,45,25.1,25.6
 2003/06/03, 2:30,25.7,45,25.1,25.6
 2003/06/03, 2:45,25.7,45,25.1,25.5
 2003/06/03, 3:00,25.7,45,25.1,25.5
 2003/06/03, 3:15,25.6,45,25.1,25.5
 2003/06/03, 3:30,25.6,45,25,25.5
 2003/06/03, 3:45,25.6,45,25,25.5
 2003/06/03, 4:00,25.6,45,25,25.5
 2003/06/03, 4:15,25.6,45,24.9,25.5
 2003/06/03, 4:30,25.6,45,24.9,25.5
 2003/06/03, 4:45,25.6,45,24.9,25.5
 2003/06/03, 5:00,25.6,45,24.9,25.5
 2003/06/03, 5:15,25.6,45,24.9,25.5
 2003/06/03, 5:30,25.7,45,24.9,25.5
 2003/06/03, 5:45,25.9,45,25,25.5
 2003/06/03, 6:00,26.1,45,24.9,25.5
 2003/06/03, 6:15,26.3,45,25,25.6
 2003/06/03, 6:30,26.5,44,25.1,25.6
 2003/06/03, 6:45,26.6,44,25.3,25.7
 2003/06/03, 7:00,26.8,44,25.4,25.8
 2003/06/03, 7:15,26.9,43,25.4,25.8
 2003/06/03, 7:30,27,43,25.5,25.9
 2003/06/03, 7:45,27,43,25.6,25.9
 2003/06/03, 8:00,27.1,43,25.6,25.9
 2003/06/03, 8:15,27,43,25.6,26
 2003/06/03, 8:30,27.1,43,25.6,26
 2003/06/03, 8:45,27,43,25.6,26
 2003/06/03, 9:00,26.9,43,25.6,26
 2003/06/03, 9:15,26.9,42,25.6,26
 2003/06/03, 9:30,26.9,43,25.6,26
 2003/06/03, 9:45,26.8,43,25.6,26
 2003/06/03,10:00,26.8,43,25.6,26
 2003/06/03,10:15,26.8,43,25.6,26
 2003/06/03,10:30,26.8,43,25.5,26
 2003/06/03,10:45,26.7,43,25.5,26
 2003/06/03,11:00,26.8,43,25.6,26
 2003/06/03,11:15,26.7,43,25.6,26
 2003/06/03,11:30,26.7,43,25.6,26
 2003/06/03,11:45,26.7,43,25.6,26
 2003/06/03,12:00,26.7,43,25.6,26
 2003/06/03,12:15,26.7,43,25.6,26
 2003/06/03,12:30,26.7,43,25.7,26
 2003/06/03,12:45,26.7,43,25.7,26
 2003/06/03,13:00,26.7,43,25.7,26
 2003/06/03,13:15,26.7,43,25.7,26
 2003/06/03,13:30,26.7,43,25.7,26
 2003/06/03,13:45,26.7,43,25.8,26
 2003/06/03,14:00,26.7,43,25.8,26
 2003/06/03,14:15,26.7,43,25.8,26
 2003/06/03,14:30,26.7,43,25.8,26.1
 2003/06/03,14:45,26.7,43,25.9,26.1
 2003/06/03,15:00,26.7,43,25.9,26.1
 2003/06/03,15:15,26.7,43,25.9,26.1
 2003/06/03,15:30,26.7,43,26,26.1
 2003/06/03,15:45,26.7,43,26.3,26.1
 2003/06/03,16:00,26.7,43,26.5,26.1
 2003/06/03,16:15,26.7,43,26.6,26.1
 2003/06/03,16:30,26.7,43,26.5,26.2
 2003/06/03,16:45,26.7,42,26.7,26.2
 2003/06/03,17:00,26.7,43,26.7,26.2
 2003/06/03,17:15,26.7,42,26.5,26.2
 2003/06/03,17:30,26.7,42,26.3,26.2
 2003/06/03,17:45,26.6,42,26.1,26.2
 2003/06/03,18:00,26.6,42,26.1,26.2
 2003/06/03,18:15,26.6,42,26,26.1
 2003/06/03,18:30,26.6,40,26,26.1
 2003/06/03,18:45,26.5,39,26,26.1
 2003/06/03,19:00,26.5,39,26,26.1
 2003/06/03,19:15,26.4,39,25.9,26.1
 2003/06/03,19:30,26.4,39,25.9,26.1
 2003/06/03,19:45,26.4,40,25.9,26.1
 2003/06/03,20:00,26.4,40,25.8,26.1
 2003/06/03,20:15,26.4,40,25.8,26.1
 2003/06/03,20:30,26.3,40,25.8,26
 2003/06/03,20:45,26.3,40,25.8,26
 2003/06/03,21:00,26.3,40,25.8,26
 2003/06/03,21:15,26.3,40,25.7,26
 2003/06/03,21:30,26.2,40,25.7,26
 2003/06/03,21:45,26.2,41,25.7,26
 2003/06/03,22:00,26.2,41,25.7,26
 2003/06/03,22:15,26.2,41,25.7,26
 2003/06/03,22:30,26.2,41,25.7,26
 2003/06/03,22:45,26.2,41,25.7,26
 2003/06/03,23:00,26.2,41,25.6,26
 2003/06/03,23:15,26.2,41,25.6,26
 2003/06/03,23:30,26.2,41,25.6,26
 2003/06/03,23:45,26.2,41,25.6,26
 2003/06/04, 0:00,26.1,42,25.6,26
 2003/06/04, 0:15,26.2,42,25.6,25.9
 2003/06/04, 0:30,26.1,42,25.6,25.9
 2003/06/04, 0:45,26.1,41,25.6,25.9
 2003/06/04, 1:00,26.1,41,25.6,25.9
 2003/06/04, 1:15,26,42,25.6,25.9
 2003/06/04, 1:30,26.1,42,25.6,25.9
 2003/06/04, 1:45,26,42,25.6,25.9
 2003/06/04, 2:00,26,42,25.6,25.9
 2003/06/04, 2:15,26,42,25.6,25.9
 2003/06/04, 2:30,26,42,25.5,25.9
 2003/06/04, 2:45,26,42,25.5,25.9
 2003/06/04, 3:00,26,42,25.5,25.9
 2003/06/04, 3:15,26,42,25.5,25.9
 2003/06/04, 3:30,26,42,25.5,25.9
 2003/06/04, 3:45,26,42,25.5,25.9
 2003/06/04, 4:00,25.9,42,25.5,25.9
 2003/06/04, 4:15,25.9,42,25.5,25.8
 2003/06/04, 4:30,25.9,42,25.5,25.8
 2003/06/04, 4:45,25.8,42,25.5,25.8
 2003/06/04, 5:00,25.8,42,25.5,25.8
 2003/06/04, 5:15,25.8,42,25.5,25.8
 2003/06/04, 5:30,25.8,42,25.5,25.8
 2003/06/04, 5:45,25.9,42,25.5,25.8
 2003/06/04, 6:00,25.8,42,25.4,25.8
 2003/06/04, 6:15,25.9,42,25.4,25.8
 2003/06/04, 6:30,26,42,25.5,25.8
 2003/06/04, 6:45,26.2,42,25.5,25.8
 2003/06/04, 7:00,26.3,42,25.5,25.8
 2003/06/04, 7:15,26.2,41,25.5,25.8
 2003/06/04, 7:30,26.2,41,25.5,25.8
 2003/06/04, 7:45,26.1,41,25.5,25.8
 2003/06/04, 8:00,26.1,41,25.5,25.8
 2003/06/04, 8:15,26.1,41,25.5,25.8
 2003/06/04, 8:30,26.1,41,25.5,25.8
 2003/06/04, 8:45,26.1,41,25.6,25.8
 2003/06/04, 9:00,26.1,40,25.6,25.8
 2003/06/04, 9:15,26.1,41,25.6,25.8
 2003/06/04, 9:30,26.1,41,25.6,25.8
 2003/06/04, 9:45,26.2,41,25.6,25.8
 2003/06/04,10:00,26.2,41,25.6,25.8
 2003/06/04,10:15,26.2,41,25.6,25.8
 2003/06/04,10:30,26.2,41,25.6,25.8
 2003/06/04,10:45,26.2,41,25.6,25.8
 2003/06/04,11:00,26.2,41,25.7,25.8
 2003/06/04,11:15,26.2,42,25.7,25.8
 2003/06/04,11:30,26.2,42,25.7,25.8
 2003/06/04,11:45,26.2,42,25.7,25.8
 2003/06/04,12:00,26.2,42,25.7,25.9
 2003/06/04,12:15,26.2,42,25.7,25.9
 2003/06/04,12:30,26.2,42,25.7,25.9
 2003/06/04,12:45,26.2,42,25.7,25.9
 2003/06/04,13:00,26.2,42,25.7,25.9
 2003/06/04,13:15,26.2,42,25.7,25.9
 2003/06/04,13:30,26.2,43,25.7,25.9
 2003/06/04,13:45,26.2,43,25.7,25.9
 2003/06/04,14:00,26.2,43,25.7,25.9
 2003/06/04,14:15,26.2,43,25.7,25.9
 2003/06/04,14:30,26.2,43,25.7,25.9
 2003/06/04,14:45,26.2,43,25.7,25.9
 2003/06/04,15:00,26.2,43,25.8,25.9
 2003/06/04,15:15,26.2,43,25.9,25.9
 2003/06/04,15:30,26.2,42,26,25.9
 2003/06/04,15:45,26.2,42,26.2,25.9
 2003/06/04,16:00,26.2,42,26.5,26
 2003/06/04,16:15,26.2,41,26.8,26
 2003/06/04,16:30,26.2,40,27,26
 2003/06/04,16:45,26.2,40,27.1,26
 2003/06/04,17:00,26.2,40,26.9,26
 2003/06/04,17:15,26.2,40,26.7,26
 2003/06/04,17:30,26.1,40,26.6,26
 2003/06/04,17:45,26.1,40,26.5,26
 2003/06/04,18:00,26.1,40,26.7,26.2
 2003/06/04,18:15,26.1,40,26.6,26.3
 2003/06/04,18:30,26.1,41,26.5,26.1
 2003/06/04,18:45,26,41,26.3,26.1
 2003/06/04,19:00,26,41,26.2,26.1
 2003/06/04,19:15,26,41,26.1,26
 2003/06/04,19:30,26,41,26,26
 2003/06/04,19:45,25.9,42,26,26
 2003/06/04,20:00,25.9,42,25.9,26
 2003/06/04,20:15,25.9,42,25.9,26
 2003/06/04,20:30,25.9,42,25.9,26
 2003/06/04,20:45,25.9,42,25.8,26
 2003/06/04,21:00,25.8,42,25.8,25.9
 2003/06/04,21:15,25.8,42,25.8,25.9
 2003/06/04,21:30,25.8,42,25.8,25.9
 2003/06/04,21:45,25.8,42,25.7,25.9
 2003/06/04,22:00,25.8,42,25.7,25.9
 2003/06/04,22:15,25.8,42,25.7,25.9
 2003/06/04,22:30,25.8,43,25.7,25.9
 2003/06/04,22:45,25.8,43,25.6,25.9
 2003/06/04,23:00,25.8,43,25.6,25.9
 2003/06/04,23:15,25.8,43,25.6,25.9
 2003/06/04,23:30,25.8,43,25.5,25.9
 2003/06/04,23:45,25.8,43,25.5,25.9
 2003/06/05, 0:00,25.8,43,25.4,25.9
 2003/06/05, 0:15,25.8,43,25.4,25.9
 2003/06/05, 0:30,25.8,43,25.4,25.9
 2003/06/05, 0:45,25.8,44,25.4,25.8
 2003/06/05, 1:00,25.8,44,25.4,25.8
 2003/06/05, 1:15,25.7,44,25.3,25.8
 2003/06/05, 1:30,25.7,44,25.3,25.8
 2003/06/05, 1:45,25.7,44,25.3,25.8
 2003/06/05, 2:00,25.7,44,25.3,25.8
 2003/06/05, 2:15,25.7,44,25.2,25.8
 2003/06/05, 2:30,25.7,44,25.1,25.8
 2003/06/05, 2:45,25.7,44,25.1,25.8
 2003/06/05, 3:00,25.7,44,25.1,25.8
 2003/06/05, 3:15,25.7,44,25,25.8
 2003/06/05, 3:30,25.7,44,25,25.7
 2003/06/05, 3:45,25.6,44,25,25.7
 2003/06/05, 4:00,25.6,44,25,25.7
 2003/06/05, 4:15,25.6,44,25,25.7
 2003/06/05, 4:30,25.6,45,25,25.7
 2003/06/05, 4:45,25.6,45,25,25.7
 2003/06/05, 5:00,25.6,45,25,25.7
 2003/06/05, 5:15,25.7,45,25,25.7
 2003/06/05, 5:30,25.8,44,25,25.7
 2003/06/05, 5:45,26,44,25.1,25.7
 2003/06/05, 6:00,26.2,44,25.2,25.8
 2003/06/05, 6:15,26.3,44,25.2,25.8
 2003/06/05, 6:30,26.5,43,25.4,25.8
 2003/06/05, 6:45,26.6,43,25.5,25.9
 2003/06/05, 7:00,26.8,43,25.6,25.9
 2003/06/05, 7:15,26.9,42,25.6,26
 2003/06/05, 7:30,27,42,25.6,26.1
 2003/06/05, 7:45,27.1,42,25.7,26.1
 2003/06/05, 8:00,27.1,42,25.8,26.2
 2003/06/05, 8:15,27.2,42,25.9,26.2
 2003/06/05, 8:30,27.1,42,25.8,26.2
 2003/06/05, 8:45,27.1,42,25.8,26.3
 2003/06/05, 9:00,27.1,42,25.8,26.3
 2003/06/05, 9:15,27,43,25.8,26.3
 2003/06/05, 9:30,27,43,25.8,26.3
 2003/06/05, 9:45,27,43,25.8,26.3
 2003/06/05,10:00,26.9,43,25.8,26.3
 2003/06/05,10:15,26.9,43,25.8,26.2
 2003/06/05,10:30,26.9,43,25.8,26.2
 2003/06/05,10:45,26.9,43,25.8,26.3
 2003/06/05,11:00,26.9,43,25.8,26.2
 2003/06/05,11:15,26.9,43,25.9,26.2
 2003/06/05,11:30,26.9,43,25.9,26.3
 2003/06/05,11:45,26.8,43,25.9,26.3
 2003/06/05,12:00,26.9,43,26,26.3
 2003/06/05,12:15,26.8,43,25.9,26.3
 2003/06/05,12:30,26.8,43,25.9,26.3
 2003/06/05,12:45,26.8,43,26,26.3
 2003/06/05,13:00,26.8,43,26,26.3
 2003/06/05,13:15,26.8,43,26,26.3
 2003/06/05,13:30,26.8,43,26.1,26.3
 2003/06/05,13:45,26.8,43,26.1,26.3
 2003/06/05,14:00,26.8,43,26.1,26.3
 2003/06/05,14:15,26.8,43,26.2,26.3
 2003/06/05,14:30,26.8,43,26.2,26.3
 2003/06/05,14:45,26.8,43,26.2,26.4
 2003/06/05,15:00,26.8,43,26.3,26.4
 2003/06/05,15:15,26.8,43,26.3,26.4
 2003/06/05,15:30,26.8,43,26.3,26.4
 2003/06/05,15:45,26.8,43,26.5,26.4
 2003/06/05,16:00,26.8,43,26.8,26.4
 2003/06/05,16:15,26.8,43,26.8,26.5
 2003/06/05,16:30,26.9,42,27,26.5
 2003/06/05,16:45,26.8,43,27.1,26.5
 2003/06/05,17:00,26.9,42,27.1,26.5
 2003/06/05,17:15,26.9,42,27.1,26.5
 2003/06/05,17:30,26.9,42,27,26.5
 2003/06/05,17:45,26.9,42,26.8,26.5
 2003/06/05,18:00,26.9,42,26.7,26.5
 2003/06/05,18:15,26.9,42,26.6,26.5
 2003/06/05,18:30,26.8,42,26.5,26.5
 2003/06/05,18:45,26.8,42,26.5,26.5
 2003/06/05,19:00,26.8,42,26.4,26.5
 2003/06/05,19:15,26.8,42,26.4,26.5
 2003/06/05,19:30,26.8,42,26.3,26.5
 2003/06/05,19:45,26.7,43,26.3,26.5
 2003/06/05,20:00,26.7,43,26.3,26.5
 2003/06/05,20:15,26.7,43,26.3,26.5
 2003/06/05,20:30,26.7,43,26.2,26.5
 2003/06/05,20:45,26.7,43,26.2,26.5
 2003/06/05,21:00,26.6,43,26.2,26.5
 2003/06/05,21:15,26.6,43,26.1,26.5
 2003/06/05,21:30,26.6,42,26.1,26.5
 2003/06/05,21:45,26.6,42,26,26.5
 2003/06/05,22:00,26.6,42,26,26.4
 2003/06/05,22:15,26.6,42,26,26.4
 2003/06/05,22:30,26.5,42,25.9,26.4
 2003/06/05,22:45,26.5,42,25.9,26.4
 2003/06/05,23:00,26.5,43,25.9,26.4
 2003/06/05,23:15,26.5,42,25.9,26.4
 2003/06/05,23:30,26.5,43,25.9,26.4
 2003/06/05,23:45,26.5,43,25.9,26.4
 2003/06/06, 0:00,26.5,42,25.9,26.4
 2003/06/06, 0:15,26.4,42,26,26.3
 2003/06/06, 0:30,26.4,42,26,26.3
 2003/06/06, 0:45,26.4,42,26,26.3
 2003/06/06, 1:00,26.4,42,25.9,26.3
 2003/06/06, 1:15,26.3,42,25.8,26.3
 2003/06/06, 1:30,26.3,42,25.8,26.3
 2003/06/06, 1:45,26.3,43,25.7,26.3
 2003/06/06, 2:00,26.3,43,25.8,26.3
 2003/06/06, 2:15,26.3,43,25.7,26.3
 2003/06/06, 2:30,26.3,43,25.7,26.3
 2003/06/06, 2:45,26.3,43,25.7,26.3
 2003/06/06, 3:00,26.2,43,25.7,26.3
 2003/06/06, 3:15,26.2,43,25.8,26.3
 2003/06/06, 3:30,26.2,43,25.8,26.2
 2003/06/06, 3:45,26.2,43,25.7,26.2
 2003/06/06, 4:00,26.2,43,25.7,26.2
 2003/06/06, 4:15,26.2,43,25.7,26.2
 2003/06/06, 4:30,26.2,43,25.7,26.2
 2003/06/06, 4:45,26.2,43,25.7,26.2
 2003/06/06, 5:00,26.2,43,25.7,26.2
 2003/06/06, 5:15,26.2,43,25.7,26.2
 2003/06/06, 5:30,26.2,43,25.7,26.2
 2003/06/06, 5:45,26.3,43,25.7,26.2
 2003/06/06, 6:00,26.4,43,25.7,26.2
 2003/06/06, 6:15,26.5,43,25.7,26.2
 2003/06/06, 6:30,26.6,43,25.8,26.2
 2003/06/06, 6:45,26.8,42,25.8,26.2
 2003/06/06, 7:00,26.8,42,25.9,26.3
 2003/06/06, 7:15,26.9,42,25.9,26.3
 2003/06/06, 7:30,27,42,26,26.3
 2003/06/06, 7:45,27.1,42,26,26.4
 2003/06/06, 8:00,27.2,41,26.1,26.4
 2003/06/06, 8:15,27.2,41,26.1,26.5
 2003/06/06, 8:30,27.2,41,26.2,26.5
 2003/06/06, 8:45,27.2,41,26.2,26.5
 2003/06/06, 9:00,27.2,41,26.2,26.5
 2003/06/06, 9:15,27.2,41,26.2,26.5
 2003/06/06, 9:30,27.1,41,26.2,26.5
 2003/06/06, 9:45,27.2,41,26.2,26.5
 2003/06/06,10:00,27.2,41,26.2,26.6
 2003/06/06,10:15,27.2,41,26.2,26.6
 2003/06/06,10:30,27.2,42,26.3,26.6
 2003/06/06,10:45,27.2,42,26.3,26.6
 2003/06/06,11:00,27.2,42,26.3,26.6
 2003/06/06,11:15,27.2,42,26.3,26.6
 2003/06/06,11:30,27.2,42,26.4,26.6
 2003/06/06,11:45,27.2,42,26.4,26.7
 2003/06/06,12:00,27.2,42,26.4,26.7
 2003/06/06,12:15,27.2,42,26.5,26.7
 2003/06/06,12:30,27.2,42,26.5,26.7
 2003/06/06,12:45,27.2,42,26.5,26.7
 2003/06/06,13:00,27.2,42,26.5,26.7
 2003/06/06,13:15,27.2,42,26.5,26.7
 2003/06/06,13:30,27.2,42,26.6,26.7
 2003/06/06,13:45,27.2,42,26.6,26.8
 2003/06/06,14:00,27.2,42,26.6,26.8
 2003/06/06,14:15,27.2,42,26.6,26.8
 2003/06/06,14:30,27.2,42,26.7,26.8
 2003/06/06,14:45,27.2,42,26.7,26.8
 2003/06/06,15:00,27.3,42,26.7,26.8
 2003/06/06,15:15,27.3,42,26.8,26.9
 2003/06/06,15:30,27.3,42,26.8,26.9
 2003/06/06,15:45,27.2,42,26.9,26.9
 2003/06/06,16:00,27.3,41,27,26.9
 2003/06/06,16:15,27.3,41,26.9,26.9
 2003/06/06,16:30,27.3,41,27,26.9
 2003/06/06,16:45,27.2,41,26.9,26.9
 2003/06/06,17:00,27.2,41,26.8,26.9
 2003/06/06,17:15,27.2,41,26.8,26.9
 2003/06/06,17:30,27.2,41,26.7,26.9
 2003/06/06,17:45,27.2,42,26.7,26.9
 2003/06/06,18:00,27.2,42,26.6,26.9
 2003/06/06,18:15,27.2,42,26.6,26.9
 2003/06/06,18:30,27.1,43,26.6,26.9
 2003/06/06,18:45,27.1,43,26.6,26.8
 2003/06/06,19:00,27.1,44,26.6,26.8
 2003/06/06,19:15,27.1,44,26.5,26.9
 2003/06/06,19:30,27.1,43,26.5,26.8
 2003/06/06,19:45,27,43,26.5,26.8
 2003/06/06,20:00,27,43,26.5,26.8
 2003/06/06,20:15,27,43,26.5,26.8
 2003/06/06,20:30,27,43,26.5,26.8
 2003/06/06,20:45,27,43,26.5,26.8
 2003/06/06,21:00,27,43,26.4,26.8
 2003/06/06,21:15,27,43,26.4,26.8
 2003/06/06,21:30,27,43,26.4,26.8
 2003/06/06,21:45,27,43,26.4,26.8
 2003/06/06,22:00,27,43,26.4,26.8
 2003/06/06,22:15,27,43,26.4,26.8
 2003/06/06,22:30,27,43,26.4,26.8
 2003/06/06,22:45,27,44,26.4,26.8
 2003/06/06,23:00,26.9,44,26.4,26.8
 2003/06/06,23:15,26.9,44,26.4,26.8
 2003/06/06,23:30,26.9,44,26.4,26.8
 2003/06/06,23:45,26.9,44,26.4,26.8
 2003/06/07, 0:00,26.9,44,26.4,26.8
 2003/06/07, 0:15,26.9,44,26.4,26.8
 2003/06/07, 0:30,26.9,44,26.4,26.8
 2003/06/07, 0:45,26.9,44,26.4,26.8
 2003/06/07, 1:00,26.9,44,26.3,26.8
 2003/06/07, 1:15,26.9,44,26.3,26.8
 2003/06/07, 1:30,26.9,44,26.3,26.8
 2003/06/07, 1:45,26.9,44,26.3,26.8
 2003/06/07, 2:00,26.9,44,26.3,26.8
 2003/06/07, 2:15,26.9,44,26.4,26.8
 2003/06/07, 2:30,26.9,44,26.3,26.8
 2003/06/07, 2:45,26.9,44,26.4,26.8
 2003/06/07, 3:00,26.9,44,26.4,26.8
 2003/06/07, 3:15,26.9,44,26.4,26.8
 2003/06/07, 3:30,26.9,44,26.4,26.8
 2003/06/07, 3:45,26.9,44,26.4,26.8
 2003/06/07, 4:00,26.9,44,26.4,26.8
 2003/06/07, 4:15,26.9,44,26.4,26.8
 2003/06/07, 4:30,26.9,44,26.4,26.8
 2003/06/07, 4:45,26.9,44,26.4,26.8
 2003/06/07, 5:00,26.9,44,26.4,26.8
 2003/06/07, 5:15,26.8,44,26.3,26.8
 2003/06/07, 5:30,26.8,44,26.3,26.8
 2003/06/07, 5:45,26.8,44,26.4,26.8
 2003/06/07, 6:00,26.8,44,26.4,26.8
 2003/06/07, 6:15,26.8,44,26.4,26.8
 2003/06/07, 6:30,26.9,44,26.4,26.8
 2003/06/07, 6:45,26.9,44,26.4,26.8
 2003/06/07, 7:00,26.9,44,26.4,26.8
 2003/06/07, 7:15,26.9,44,26.4,26.8
 2003/06/07, 7:30,26.9,44,26.4,26.8
 2003/06/07, 7:45,26.9,44,26.4,26.8
 2003/06/07, 8:00,26.9,44,26.4,26.8
 2003/06/07, 8:15,26.9,44,26.4,26.8
 2003/06/07, 8:30,26.9,44,26.4,26.8
 2003/06/07, 8:45,26.9,44,26.5,26.8
 2003/06/07, 9:00,27,44,26.5,26.8
 2003/06/07, 9:15,27.1,44,26.5,26.8
 2003/06/07, 9:30,27.2,44,26.6,26.8
 2003/06/07, 9:45,27.3,44,26.6,26.8
 2003/06/07,10:00,27.3,44,26.6,26.9
 2003/06/07,10:15,27.3,44,26.6,26.9
 2003/06/07,10:30,27.3,44,26.7,26.9
 2003/06/07,10:45,27.4,44,26.7,27
 2003/06/07,11:00,27.4,44,26.7,27
 2003/06/07,11:15,27.4,44,26.7,27
 2003/06/07,11:30,27.4,44,26.7,27
 2003/06/07,11:45,27.4,44,26.7,27
 2003/06/07,12:00,27.4,44,26.7,27
 2003/06/07,12:15,27.4,44,26.8,27
 2003/06/07,12:30,27.4,44,26.8,27
 2003/06/07,12:45,27.5,43,26.8,27.1
 2003/06/07,13:00,27.5,43,26.8,27.1
 2003/06/07,13:15,27.5,43,26.8,27.1
 2003/06/07,13:30,27.5,43,26.8,27.1
 2003/06/07,13:45,27.5,43,26.9,27.1
 2003/06/07,14:00,27.5,43,26.9,27.1
 2003/06/07,14:15,27.5,43,26.9,27.1
 2003/06/07,14:30,27.5,43,26.9,27.2
 2003/06/07,14:45,27.5,43,27,27.2
 2003/06/07,15:00,27.5,43,27,27.2
 2003/06/07,15:15,27.5,43,27,27.2
 2003/06/07,15:30,27.5,42,26.9,27.2
 2003/06/07,15:45,27.5,42,26.9,27.2
 2003/06/07,16:00,27.5,42,26.9,27.2
 2003/06/07,16:15,27.4,42,26.9,27.2
 2003/06/07,16:30,27.4,42,26.9,27.2
 2003/06/07,16:45,27.4,42,26.9,27.2
 2003/06/07,17:00,27.4,42,26.8,27.2
 2003/06/07,17:15,27.4,42,26.9,27.1
 2003/06/07,17:30,27.4,42,26.9,27.1
 2003/06/07,17:45,27.3,42,26.8,27.1
 2003/06/07,18:00,27.3,42,26.8,27.1
 2003/06/07,18:15,27.3,43,26.8,27.1
 2003/06/07,18:30,27.3,42,26.8,27.1
 2003/06/07,18:45,27.3,43,26.8,27.1
 2003/06/07,19:00,27.3,43,26.7,27.1
 2003/06/07,19:15,27.2,44,26.7,27.1
 2003/06/07,19:30,27.3,44,26.7,27.1
 2003/06/07,19:45,27.3,44,26.7,27.1
 2003/06/07,20:00,27.3,44,26.7,27.1